sat.trackr.live / text

‹ back to catalog

STARLINK-35090

NORAD 65698 · 2025-212Y

PAYLOAD ACTIVE UNKNOWN

§ Identity

Operator
Country
US
Launch date
2025-09-21
Launch site
AFETR
Launch vehicle
Mass (kg)
RCS (m²)

Purposes: comms

External: N2YO · Heavens-Above · Gunter

§ Orbital elements

Epoch: 2026-09-19T05:39:12.422880Z

Period
93.85 min
Inclination
53.1597°
Eccentricity
0.0003453
Mean motion
15.34411512 rev/d
Perigee alt
460.3 km
Apogee alt
465.0 km
Semi-major
6,840.8 km
B*
7.6099e-4
RAAN
163.3126°
Arg perigee
80.4617°
Mean anomaly
279.6776°
Rev number
5,692

§ Raw data

STARLINK-350901 65698U 25212Y   26262.23556045  .00025434  00000+0  76099-3 0  99952 65698  53.1597 163.3126 0003453  80.4617 279.6776 15.34411512 56922

JSON: /api/v1/satellites/65698 · /tle

For live sub-satellite position, see the globe view (requires WebGL).

§ Visibility from observer

Set your observer location to see the next 7 days of passes ≥ 10°. The values pass through the URL so the page stays shareable.

No JS? Fill the form by hand. The geolocation button needs JavaScript.